Tracking 30995 objects as of 5-Jul-2025
HD Live streaming from Space Station
objects crossing your sky now

SHIYAN 19 (SY-19)

Track SHIYAN 19 (SY-19) now!
10-day predictions


NORAD ID: 55861
Int'l Code: 2023-034A
Perigee: 437.6 km
Apogee: 449.5 km
Inclination: 97.4 °
Period: 93.3 minutes
Semi major axis: 6814 km
RCS: Unknown
Launch date: March 15, 2023
Source: People's Republic of China (PRC)
Launch site: Jiuquan Satellite Launch Center, China (JSC)
Your satellite tracking list
FENGYUN 1C DEB
Track 1 satellite(s)




NASA's NSSDC Master Catalog

Two Line Element Set (TLE):
1 55861U 23034A   25186.60388259  .00010236  00000-0  23171-3 0  9999
2 55861  97.4318  28.3708 0008775 159.4908 200.6694 15.43286508128897
Source of the keplerian elements: AFSPC